Regional Weather Roundup
Issued by NWS

Home | Current Version | Previous Version | Graphics & Text | Print | Product List | Glossary On
Versions: 1 2 3 4 5 6 7 8 9 10 11 12 13 14 15 16 17 18 19 20 21 22 23 24 25 26 27 28 29 30 31 32 33 34 35 36 37 38 39 40 41 42 43 44 45 46 47 48 49 50
000
ASUS43 KDTX 220410
RWRMI
MICHIGAN HOURLY REGIONAL WEATHER ROUNDUP
NATIONAL WEATHER SERVICE DETROIT/PONTIAC MI
1200 AM EDT WED OCT 22 2014

NOTE: "FAIR" INDICATES FEW OR NO CLOUDS BELOW 12,000 FEET WITH NO
SIGNIFICANT WEATHER AND/OR OBSTRUCTION TO VISIBILITY.

MIZ047>049-052>055-059>063-066>070-074>076-081>083-220500-
SOUTHEAST LOWER MICHIGAN

CITY           SKY/WX    TMP DP  RH WIND       PRES   REMARKS
ADRIAN         CLOUDY    44  36  73 N12       30.23S
ALMA           CLEAR     36  32  85 N5        30.28S WCI  32
ANN ARBOR      CLOUDY    44  34  67 N13       30.22S
BAD AXE        CLOUDY    44  39  85 N7        30.25S
CARO           CLOUDY    43  37  78 CALM      30.25R
DETROIT CITY   CLOUDY    47  37  68 N9        30.21R
DETROIT        CLOUDY    45  37  73 N10       30.21S
FLINT          CLOUDY    45  35  68 N12       30.25S
GROSSE ILE     CLOUDY    45  37  76 N13       30.19S
HILLSDALE      CLOUDY    41  38  87 N3        30.23S
HOWELL         CLOUDY    40  35  83 N3        30.23S

CITY           SKY/WX    TMP DP  RH WIND       PRES   REMARKS
JACKSON        CLEAR     36  33  89 N5        30.24S WCI  32
LAMBERTVILLE   CLOUDY    45  36  70 N6        30.21S
LANSING        CLEAR     37  32  82 NE6       30.26S WCI  32
LAPEER         CLOUDY    43  36  75 N7        30.23R
MASON          PTCLDY    37  33  88 CALM      30.25S
MONROE         CLOUDY    45  37  76 N8        30.19F
MT. CLEMENS    CLOUDY    45  40  82 N12       30.18S
PONTIAC        CLOUDY    43  35  73 N9        30.21R
PORT HOPE        N/A     46  39  76 NE23      30.24S
PORT HURON     CLOUDY    46  41  81 N9G21     30.20R
TRI CITIES     CLOUDY    41  32  70 N10       30.28S
TROY           CLOUDY    46  37  72 N9        30.22S
SAGINAW HB     CLOUDY    45  36  70 N6        30.26S
$$
MIZ043>046-050>051-056>058-064>065-071>073-077>080-220500-
SOUTHWEST LOWER MICHIGAN

CITY           SKY/WX    TMP DP  RH WIND       PRES   REMARKS
BATTLE CREEK   CLEAR     36  31  82 NE3       30.26R
BENTON HARBOR  CLEAR     34  33  96 CALM      30.25S
BIG RAPIDS     CLEAR     36  35  94 CALM      30.29R
COLDWATER      CLEAR     39  36  89 N5        30.25S
FREMONT        FAIR      38  33  81 NE3       30.28R
HOLLAND        CLEAR     42  35  76 NE3       30.27R
GRAND RAPIDS   CLEAR     37  34  89 CALM      30.27R
IONIA          FAIR      37  35  90 E6        30.27R WCI  32
KALAMAZOO      CLEAR     34  32  92 CALM      30.26R FOG
LUDINGTON      CLEAR     34  32  92 CALM      30.29S
MARSHALL       CLEAR     37  33  88 CALM      30.25S
MOUNT PLEASANT CLEAR     35  30  82 N3        30.28S
MUSKEGON       CLEAR     40  32  73 NE5       30.28R
SOUTH HAVEN    CLEAR     34  33  96 CALM      30.25S FOG
$$
MIZ016>042-220500-
NORTHERN LOWER MICHIGAN

CITY           SKY/WX    TMP DP  RH WIND       PRES   REMARKS
ALPENA         CLOUDY    38  32  79 NE6       30.31S WCI  33
BEAVER ISLAND  CLEAR     32  31  98 CALM      30.31S
BELLAIRE       CLEAR     30  29  95 CALM      30.32R
CADILLAC       CLEAR     28  27  96 CALM      30.27S
CHARLEVOIX     CLEAR     33  32  96 CALM      30.34S
FRANKFORT      CLEAR     35  30  82 CALM      30.30S
GAYLORD        CLEAR     30  26  85 CALM      30.28S
GRAYLING       CLEAR     27  26  97 CALM      30.29S
HARBOR SPRINGS CLEAR     32  29  90 CALM      30.31S
HOUGHTON LAKE  CLEAR     29  25  85 CALM      30.29R
MANISTEE       CLEAR     32  27  80 CALM      30.30S
OSCODA         CLOUDY    42  34  73 NE14      30.28S
PELLSTON       CLEAR     27  25  92 CALM      30.32R
TRAVERSE CITY  CLEAR     35  29  78 CALM      30.30R
$$
MIZ007>008-015-220500-
EASTERN UPPER MICHIGAN

CITY           SKY/WX    TMP DP  RH WIND       PRES   REMARKS
KINROSS        CLEAR     34  30  86 E7        30.34R WCI  28
MACKINAC ISLAN PTCLDY    40  32  73 E9        30.32R WCI  34
NEWBERRY       CLEAR     32  30  90 E8        30.32R WCI  25
S. S. MARIE    CLEAR     35  28  75 E3        30.34R
MUNISING         N/A     31  27  85 S6        30.32S WCI  25
$$
MIZ004>006-011>014-085-220500-
CENTRAL UPPER MICHIGAN

CITY           SKY/WX    TMP DP  RH WIND       PRES   REMARKS
MANISTIQUE     PTCLDY    29  28  95 NW5       30.32R WCI  24
ESCANABA       PTCLDY    30  27  86 CALM      30.32S
MENOMINEE      CLEAR     36  28  75 N5        30.30S WCI  32
SAWYER-GWINN   CLEAR     27  26  94 CALM      30.30S
$$
MIZ001>003-009>011-084-220500-
WESTERN UPPER MICHIGAN

CITY           SKY/WX    TMP DP  RH WIND       PRES   REMARKS
IRON MOUNTAIN  CLEAR     30  26  85 CALM      30.30R
HOUGHTON       CLEAR     35  31  85 SE8       30.29S WCI  29
COPPER HARBOR    N/A     36  32  85 CALM      30.30S
IRONWOOD       CLEAR     30  28  93 CALM      30.23S
$$

ABBREVIATIONS USED IN REMARKS
   TC - TEMPERATURE IN CELSIUS
  WCI - WIND CHILL INDEX
   HX - HEAT INDEX
  VSB - VISIBILITY




USA.gov is the U.S. government's official web portal to all federal, state and local government web resources and services.